Retour au catalogue

STARLINK-1522

ActifCommunicationsVLEO
NORAD 46027·PAYLOAD·🇺🇸 United States

Lancé Aug 7, 2020 depuis Cape Canaveral Space Force Station

Loading…

Prochains Passages (prochaines 24 heures)

TLE

FraisSource: CelesTrak SupGP

Époque: Sep 14, 2026, 19:56 UTC

1 46027C 20055A   26257.83104167 -.00000033  00000+0 -16312-5 0  2575
2 46027  53.0607 348.6001 0001438 352.9526 291.6603 15.16925827    16

Suivez STARLINK-1522 en temps réel avec AllMySat

Download on the App Store